TimeMDT,TemperatureF,Dew PointF,Humidity,Sea Level PressureIn,VisibilityMPH,Wind Direction,Wind SpeedMPH,Gust SpeedMPH,PrecipitationIn,Events,Conditions,WindDirDegrees,DateUTC
12:53 AM,39.0,30.0,70,30.08,10.0,West,4.6,-,N/A,,Clear,270,2011-10-21 06:53:00
1:53 AM,39.0,30.0,70,30.08,10.0,West,3.5,-,N/A,,Clear,270,2011-10-21 07:53:00
2:53 AM,39.9,30.0,68,30.07,10.0,WNW,3.5,-,N/A,,Clear,290,2011-10-21 08:53:00
3:53 AM,39.9,30.9,70,30.07,10.0,West,10.4,-,N/A,,Clear,280,2011-10-21 09:53:00
4:53 AM,39.0,30.9,73,30.08,10.0,Calm,Calm,-,N/A,,Clear,0,2011-10-21 10:53:00
5:53 AM,36.0,30.0,79,30.12,10.0,WNW,3.5,-,N/A,,Clear,300,2011-10-21 11:53:00
6:53 AM,36.0,30.0,79,30.14,10.0,NW,5.8,-,N/A,,Clear,320,2011-10-21 12:53:00
7:53 AM,39.9,30.9,70,30.17,10.0,NW,4.6,-,N/A,,Clear,310,2011-10-21 13:53:00
8:53 AM,46.9,33.1,59,30.16,10.0,NW,4.6,-,N/A,,Clear,310,2011-10-21 14:53:00
9:53 AM,53.1,35.1,50,30.15,10.0,NW,4.6,-,N/A,,Clear,320,2011-10-21 15:53:00
10:53 AM,60.1,36.0,41,30.13,10.0,SW,3.5,-,N/A,,Clear,230,2011-10-21 16:53:00
11:53 AM,64.9,36.0,34,30.12,10.0,WNW,3.5,-,N/A,,Clear,290,2011-10-21 17:53:00
12:53 PM,68.0,34.0,28,30.09,10.0,WNW,3.5,-,N/A,,Clear,290,2011-10-21 18:53:00
1:53 PM,70.0,33.1,26,30.06,10.0,West,5.8,-,N/A,,Clear,280,2011-10-21 19:53:00
2:53 PM,70.0,35.1,28,30.06,10.0,NNW,4.6,-,N/A,,Clear,340,2011-10-21 20:53:00
3:53 PM,72.0,36.0,27,30.05,10.0,Calm,Calm,-,N/A,,Clear,0,2011-10-21 21:53:00
4:53 PM,66.9,37.0,33,30.06,9.0,NNE,5.8,-,N/A,,Clear,20,2011-10-21 22:53:00
5:53 PM,61.0,36.0,39,30.10,10.0,ENE,3.5,-,N/A,,Clear,60,2011-10-21 23:53:00
6:53 PM,57.9,35.1,42,30.12,10.0,Calm,Calm,-,N/A,,Clear,0,2011-10-22 00:53:00
7:53 PM,55.0,36.0,49,30.12,10.0,Calm,Calm,-,N/A,,Clear,0,2011-10-22 01:53:00
8:53 PM,52.0,35.1,53,30.11,5.0,SW,3.5,-,N/A,,Haze,220,2011-10-22 02:53:00
9:53 PM,50.0,35.6,58,30.11,6.0,WSW,4.6,-,N/A,,Haze,240,2011-10-22 03:53:00
10:53 PM,48.9,36.0,61,30.09,10.0,SSW,5.8,-,N/A,,Partly Cloudy,210,2011-10-22 04:53:00
11:53 PM,51.1,33.1,50,30.06,10.0,South,5.8,-,N/A,,Clear,190,2011-10-22 05:53:00